Weather History for Scappoose, OR

Change the Weather History Date:

Monday, November 18, 2013

  Actual Average Record
Temperature  
Mean Temperature 50 °F -  
Max Temperature 52 °F - 59 °F (2001)
Min Temperature 48 °F - 21 °F (2000)
Degree Days  
Heating Degree Days 15    
Month to date heating degree days 314  
Since 1 July heating degree days 884  
Cooling Degree Days 0    
Month to date cooling degree days 0  
Year to date cooling degree days 396  
Moisture  
Dew Point 46 °F    
Average Humidity 84    
Maximum Humidity 93    
Minimum Humidity 74    
Precipitation  
Precipitation 0.40 in - 1.52 in (2012)
Month to date precipitation 2.89  
Year to date precipitation 25.40  
Sea Level Pressure  
Sea Level Pressure 29.83 in    
Wind  
Wind Speed 7 mph (SSE)    
Max Wind Speed 13 mph    
Max Gust Speed 20 mph    
Visibility 9 miles    
Events Rain    
T = Trace of Precipitation, MM = Missing Value Source: NWS Daily Summary

Daily Weather History Graph

Daily Weather History Graph

Search for Another Location

Airport:

Trip Planner

Search our weather history database for the weather conditions in past years. The results will help you decide how hot, cold, wet, or windy it might be!

Date:

Astronomy

Nov. 18, 2013 Rise Set
Actual Time 7:15 AM PST 4:37 PM PST
Civil Twilight 6:43 AM PST 5:09 PM PST
Nautical Twilight 6:06 AM PST 5:46 PM PST
Astronomical Twilight 5:31 AM PST 6:21 PM PST
Moon 5:42 PM PST (11/18) 8:10 AM PST (11/18)
Length of Visible Light 10h 26m
Length of Day
9h 21m
Full, 99% of the Moon is Illuminated
Nov 18
Full
Nov 25
Last Quarter
Dec 2
New
Dec 9
First Quarter
Dec 17
Full

Hourly Weather History & Observations

Time (PST) Temp. Dew Point Humidity Pressure Visibility Wind Dir Wind Speed Gust Speed Precip Events Conditions
12:37 AM 51.1 °F 45.0 °F 80% 29.96 in 10.0 mi South 6.9 mph - N/A   Overcast
12:53 AM 51.1 °F 45.0 °F 80% 29.96 in 10.0 mi Variable 3.5 mph - N/A   Overcast
1:53 AM 50.0 °F 45.0 °F 83% 29.96 in 10.0 mi SSE 4.6 mph - N/A   Overcast
2:53 AM 50.0 °F 44.1 °F 80% 29.95 in 10.0 mi Variable 3.5 mph - N/A   Partly Cloudy
3:53 AM 48.0 °F 43.0 °F 83% 29.94 in 10.0 mi SE 5.8 mph - N/A   Scattered Clouds
4:53 AM 48.9 °F 43.0 °F 80% 29.93 in 10.0 mi ESE 3.5 mph - N/A   Scattered Clouds
5:53 AM 50.0 °F 43.0 °F 77% 29.92 in 10.0 mi SSE 5.8 mph - N/A   Overcast
6:53 AM 50.0 °F 42.1 °F 74% 29.91 in 10.0 mi South 4.6 mph - N/A   Scattered Clouds
7:53 AM 48.9 °F 43.0 °F 80% 29.91 in 10.0 mi South 10.4 mph - N/A   Mostly Cloudy
8:53 AM 48.9 °F 44.1 °F 83% 29.91 in 10.0 mi Variable 6.9 mph - N/A   Overcast
9:33 AM 51.1 °F 45.0 °F 80% 29.89 in 10.0 mi South 5.8 mph - N/A   Mostly Cloudy
9:53 AM 52.0 °F 44.1 °F 74% 29.89 in 10.0 mi SSE 8.1 mph - N/A   Mostly Cloudy
10:00 AM 52.0 °F 44.1 °F 74% 29.89 in 10.0 mi South 8.1 mph - N/A   Mostly Cloudy
10:53 AM 50.0 °F 45.0 °F 83% 29.89 in 10.0 mi SSE 8.1 mph - 0.01 in Rain Light Rain
11:53 AM 50.0 °F 46.0 °F 86% 29.87 in 7.0 mi South 8.1 mph - 0.04 in Rain Light Rain
12:53 PM 51.1 °F 46.9 °F 86% 29.84 in 10.0 mi SSE 8.1 mph - 0.01 in Rain Light Rain
1:51 PM 51.8 °F 46.4 °F 82% 29.80 in 10.0 mi SSE 8.1 mph - 0.00 in Rain Light Rain
1:53 PM 51.1 °F 46.9 °F 86% 29.81 in 10.0 mi SSE 9.2 mph - 0.00 in Rain Light Rain
2:15 PM 51.1 °F 46.9 °F 86% 29.79 in 6.0 mi SSE 6.9 mph - 0.01 in Rain Light Rain
2:53 PM 50.0 °F 46.0 °F 86% 29.79 in 6.0 mi SSE 6.9 mph - 0.03 in Rain Light Rain
3:53 PM 50.0 °F 46.0 °F 86% 29.77 in 10.0 mi SSE 10.4 mph - 0.02 in Rain Light Rain
4:45 PM 50.0 °F 46.9 °F 89% 29.75 in 5.0 mi SSE 9.2 mph - 0.01 in Rain Light Rain
4:53 PM 50.0 °F 46.9 °F 89% 29.75 in 7.0 mi South 10.4 mph - 0.02 in Rain Light Rain
5:53 PM 51.1 °F 46.9 °F 86% 29.73 in 10.0 mi South 9.2 mph - 0.02 in Rain Light Rain
6:53 PM 51.1 °F 46.9 °F 86% 29.71 in 6.0 mi SSE 9.2 mph 19.6 mph 0.15 in Rain Light Rain
7:48 PM 51.8 °F 48.2 °F 88% 29.70 in 5.0 mi SSE 6.9 mph - 0.03 in Rain Light Rain
7:53 PM 51.1 °F 48.0 °F 89% 29.71 in 5.0 mi SSE 8.1 mph - 0.03 in Rain Light Rain
8:53 PM 51.1 °F 48.0 °F 89% 29.71 in 5.0 mi SSE 8.1 mph - 0.03 in Rain Light Rain
9:53 PM 51.1 °F 48.0 °F 89% 29.72 in 10.0 mi SSE 5.8 mph - 0.02 in Rain Light Rain
10:53 PM 52.0 °F 48.9 °F 89% 29.71 in 9.0 mi South 6.9 mph - 0.01 in Rain Light Rain
11:53 PM 52.0 °F 48.9 °F 89% 29.72 in 10.0 mi South 9.2 mph - 0.01 in   Overcast